TimeEST,TemperatureF,Dew PointF,Humidity,Sea Level PressureIn,VisibilityMPH,Wind Direction,Wind SpeedMPH,Gust SpeedMPH,PrecipitationIn,Events,Conditions,WindDirDegrees,DateUTC
12:45 AM,39.2,39.2,100,29.89,9.0,WSW,8.1,-,N/A,,Partly Cloudy,250,2014-02-22 05:45:00
12:53 AM,39.9,37.9,93,29.89,8.0,West,9.2,-,N/A,,Clear,260,2014-02-22 05:53:00
1:43 AM,35.6,33.8,93,29.90,2.5,West,5.8,-,N/A,,Clear,260,2014-02-22 06:43:00
1:53 AM,36.0,35.1,97,29.91,2.5,WSW,3.5,-,N/A,,Clear,250,2014-02-22 06:53:00
2:27 AM,35.6,33.8,93,29.91,3.0,WSW,5.8,-,N/A,,Clear,240,2014-02-22 07:27:00
2:39 AM,33.8,33.8,100,29.92,2.0,WSW,5.8,-,N/A,,Clear,250,2014-02-22 07:39:00
2:53 AM,34.0,33.1,96,29.93,4.0,West,6.9,-,N/A,,Clear,260,2014-02-22 07:53:00
3:53 AM,34.0,33.1,96,29.94,4.0,West,6.9,-,N/A,,Clear,270,2014-02-22 08:53:00
4:53 AM,36.0,34.0,93,29.96,10.0,West,6.9,-,N/A,,Clear,260,2014-02-22 09:53:00
5:53 AM,35.1,33.1,92,29.96,10.0,West,8.1,-,N/A,,Clear,270,2014-02-22 10:53:00
6:53 AM,34.0,33.1,96,29.98,9.0,WSW,4.6,-,N/A,,Clear,240,2014-02-22 11:53:00
7:53 AM,39.0,36.0,89,30.01,10.0,West,10.4,-,N/A,,Clear,260,2014-02-22 12:53:00
8:53 AM,41.0,35.1,79,30.03,10.0,West,12.7,-,N/A,,Clear,260,2014-02-22 13:53:00
9:53 AM,45.0,36.0,71,30.03,10.0,West,13.8,-,N/A,,Clear,260,2014-02-22 14:53:00
10:53 AM,44.1,34.0,68,30.04,10.0,WSW,15.0,-,N/A,,Clear,250,2014-02-22 15:53:00
11:53 AM,46.0,30.9,56,30.03,10.0,WSW,17.3,24.2,N/A,,Clear,250,2014-02-22 16:53:00
12:53 PM,44.1,33.1,65,30.01,10.0,SW,13.8,-,N/A,,Clear,230,2014-02-22 17:53:00
1:53 PM,44.1,32.0,63,29.98,10.0,SW,11.5,-,N/A,,Clear,230,2014-02-22 18:53:00
2:53 PM,43.0,34.0,71,29.99,10.0,SW,15.0,-,N/A,,Clear,230,2014-02-22 19:53:00
3:53 PM,43.0,34.0,71,29.99,10.0,SW,13.8,-,N/A,,Clear,230,2014-02-22 20:53:00
4:53 PM,41.0,33.1,73,29.99,10.0,SSW,15.0,-,N/A,,Clear,210,2014-02-22 21:53:00
5:53 PM,39.9,32.0,73,30.00,10.0,SW,15.0,-,N/A,,Clear,220,2014-02-22 22:53:00
6:53 PM,39.9,33.1,77,30.01,10.0,SW,12.7,-,N/A,,Clear,230,2014-02-22 23:53:00
7:53 PM,39.9,34.0,79,30.02,10.0,SW,13.8,-,N/A,,Clear,220,2014-02-23 00:53:00
8:53 PM,39.9,34.0,79,30.02,10.0,SW,15.0,-,N/A,,Clear,230,2014-02-23 01:53:00
9:53 PM,41.0,35.1,79,30.03,10.0,SW,15.0,-,N/A,,Clear,230,2014-02-23 02:53:00
10:53 PM,41.0,35.1,79,30.03,10.0,SW,15.0,-,N/A,,Clear,220,2014-02-23 03:53:00
11:53 PM,41.0,35.1,79,30.04,10.0,SW,12.7,-,N/A,,Clear,230,2014-02-23 04:53:00